TimeMST,TemperatureF,Dew PointF,Humidity,Sea Level PressureIn,VisibilityMPH,Wind Direction,Wind SpeedMPH,Gust SpeedMPH,PrecipitationIn,Events,Conditions,WindDirDegrees,DateUTC
12:15 AM,51.8,19.4,28,30.04,10.0,ENE,5.8,-,N/A,,Clear,70,2013-04-11 07:15:00
12:35 AM,51.8,19.4,28,30.04,10.0,East,5.8,-,N/A,,Clear,80,2013-04-11 07:35:00
12:55 AM,51.8,21.2,30,30.03,10.0,East,9.2,-,N/A,,Clear,80,2013-04-11 07:55:00
1:15 AM,51.8,21.2,30,30.03,10.0,NNE,3.5,-,N/A,,Clear,20,2013-04-11 08:15:00
1:35 AM,50.0,21.2,32,30.03,10.0,Calm,Calm,-,N/A,,Clear,0,2013-04-11 08:35:00
1:55 AM,50.0,21.2,32,30.02,10.0,ENE,4.6,-,N/A,,Clear,60,2013-04-11 08:55:00
2:15 AM,46.4,21.2,37,30.02,10.0,ENE,3.5,-,N/A,,Clear,70,2013-04-11 09:15:00
2:35 AM,48.2,21.2,34,30.02,10.0,ENE,4.6,-,N/A,,Clear,60,2013-04-11 09:35:00
3:15 AM,46.4,21.2,37,30.00,10.0,East,3.5,-,N/A,,Clear,80,2013-04-11 10:15:00
3:35 AM,48.2,21.2,34,30.00,10.0,ENE,3.5,-,N/A,,Clear,60,2013-04-11 10:35:00
3:55 AM,46.4,21.2,37,30.00,10.0,NE,8.1,-,N/A,,Clear,50,2013-04-11 10:55:00
4:15 AM,46.4,21.2,37,30.00,10.0,ENE,6.9,-,N/A,,Clear,60,2013-04-11 11:15:00
4:35 AM,46.4,21.2,37,30.00,10.0,NE,6.9,-,N/A,,Clear,40,2013-04-11 11:35:00
4:55 AM,44.6,23.0,43,30.00,10.0,NNE,6.9,-,N/A,,Clear,30,2013-04-11 11:55:00
5:15 AM,46.4,23.0,40,30.00,10.0,NE,4.6,-,N/A,,Clear,40,2013-04-11 12:15:00
5:35 AM,46.4,23.0,40,30.00,10.0,NE,5.8,-,N/A,,Clear,50,2013-04-11 12:35:00
5:55 AM,44.6,23.0,43,30.01,10.0,NE,3.5,-,N/A,,Clear,50,2013-04-11 12:55:00
6:15 AM,46.4,23.0,40,30.01,10.0,East,3.5,-,N/A,,Clear,80,2013-04-11 13:15:00
6:35 AM,46.4,23.0,40,30.01,10.0,Calm,Calm,-,N/A,,Clear,0,2013-04-11 13:35:00
6:55 AM,50.0,23.0,35,30.02,10.0,Calm,Calm,-,N/A,,Clear,0,2013-04-11 13:55:00
7:15 AM,50.0,26.6,40,30.02,10.0,ESE,4.6,-,N/A,,Clear,110,2013-04-11 14:15:00
7:35 AM,51.8,23.0,33,30.02,10.0,East,3.5,-,N/A,,Clear,100,2013-04-11 14:35:00
7:55 AM,53.6,26.6,35,30.02,10.0,East,3.5,-,N/A,,Clear,90,2013-04-11 14:55:00
8:15 AM,53.6,26.6,35,30.02,10.0,Calm,Calm,-,N/A,,Clear,0,2013-04-11 15:15:00
8:35 AM,55.4,24.8,31,30.02,10.0,SSW,4.6,-,N/A,,Clear,200,2013-04-11 15:35:00
8:55 AM,57.2,24.8,29,30.00,10.0,South,5.8,-,N/A,,Clear,190,2013-04-11 15:55:00
9:15 AM,59.0,26.6,29,30.01,10.0,South,3.5,-,N/A,,Clear,190,2013-04-11 16:15:00
9:35 AM,59.0,26.6,29,30.01,10.0,South,5.8,-,N/A,,Clear,190,2013-04-11 16:35:00
9:55 AM,60.8,26.6,27,30.01,10.0,Calm,Calm,-,N/A,,Clear,0,2013-04-11 16:55:00
10:15 AM,60.8,26.6,27,30.01,10.0,SSE,5.8,-,N/A,,Clear,160,2013-04-11 17:15:00
10:35 AM,64.4,26.6,24,30.00,10.0,SSE,4.6,-,N/A,,Clear,150,2013-04-11 17:35:00
10:55 AM,64.4,26.6,24,30.00,10.0,SSE,3.5,-,N/A,,Clear,150,2013-04-11 17:55:00
11:15 AM,64.4,26.6,24,30.00,10.0,WSW,4.6,-,N/A,,Clear,240,2013-04-11 18:15:00
11:35 AM,64.4,26.6,24,29.99,10.0,SW,3.5,-,N/A,,Clear,230,2013-04-11 18:35:00
11:55 AM,69.8,26.6,20,29.98,10.0,SSE,5.8,-,N/A,,Clear,150,2013-04-11 18:55:00
12:15 PM,66.2,26.6,23,29.97,10.0,Calm,Calm,-,N/A,,Clear,0,2013-04-11 19:15:00
12:35 PM,69.8,28.4,21,29.97,10.0,SSE,9.2,-,N/A,,Clear,150,2013-04-11 19:35:00
12:55 PM,69.8,28.4,21,29.95,10.0,South,9.2,-,N/A,,Clear,190,2013-04-11 19:55:00
1:15 PM,71.6,28.4,20,29.95,10.0,SSW,4.6,17.3,N/A,,Clear,200,2013-04-11 20:15:00
1:35 PM,73.4,28.4,19,29.94,10.0,SSE,8.1,-,N/A,,Clear,160,2013-04-11 20:35:00
1:55 PM,69.8,26.6,20,29.93,10.0,SSE,4.6,-,N/A,,Clear,160,2013-04-11 20:55:00
2:15 PM,69.8,26.6,20,29.93,10.0,SW,3.5,-,N/A,,Clear,230,2013-04-11 21:15:00
2:35 PM,71.6,26.6,19,29.91,10.0,SW,5.8,-,N/A,,Clear,230,2013-04-11 21:35:00
2:55 PM,71.6,28.4,20,29.90,10.0,WSW,9.2,-,N/A,,Scattered Clouds,250,2013-04-11 21:55:00
3:15 PM,71.6,26.6,19,29.89,10.0,SSW,9.2,19.6,N/A,,Mostly Cloudy,200,2013-04-11 22:15:00
3:35 PM,71.6,26.6,19,29.88,10.0,SSW,10.4,20.7,N/A,,Scattered Clouds,200,2013-04-11 22:35:00
3:55 PM,69.8,26.6,20,29.87,10.0,South,18.4,23.0,N/A,,Scattered Clouds,180,2013-04-11 22:55:00
4:15 PM,69.8,28.4,21,29.87,10.0,South,16.1,24.2,N/A,,Mostly Cloudy,180,2013-04-11 23:15:00
4:35 PM,69.8,26.6,20,29.87,10.0,SW,11.5,18.4,N/A,,Scattered Clouds,220,2013-04-11 23:35:00
4:55 PM,68.0,26.6,21,29.87,10.0,WSW,6.9,-,N/A,,Scattered Clouds,240,2013-04-11 23:55:00
5:15 PM,68.0,26.6,21,29.87,10.0,SW,11.5,16.1,N/A,,Scattered Clouds,220,2013-04-12 00:15:00
5:35 PM,68.0,24.8,20,29.87,10.0,SW,12.7,17.3,N/A,,Mostly Cloudy,220,2013-04-12 00:35:00
5:55 PM,66.2,26.6,23,29.87,10.0,SW,10.4,16.1,N/A,,Mostly Cloudy,220,2013-04-12 00:55:00
6:15 PM,64.4,26.6,24,29.87,10.0,SW,6.9,18.4,N/A,,Clear,230,2013-04-12 01:15:00
6:35 PM,64.4,24.8,22,29.87,10.0,SW,10.4,17.3,N/A,,Clear,230,2013-04-12 01:35:00
6:55 PM,62.6,26.6,26,29.88,10.0,SSW,5.8,-,N/A,,Clear,210,2013-04-12 01:55:00
7:15 PM,60.8,26.6,27,29.88,10.0,South,4.6,-,N/A,,Clear,180,2013-04-12 02:15:00
7:35 PM,60.8,26.6,27,29.88,10.0,South,3.5,-,N/A,,Clear,180,2013-04-12 02:35:00
7:55 PM,60.8,26.6,27,29.89,10.0,SSE,6.9,-,N/A,,Clear,160,2013-04-12 02:55:00
8:15 PM,59.0,26.6,29,29.90,10.0,South,4.6,-,N/A,,Clear,180,2013-04-12 03:15:00
8:35 PM,59.0,26.6,29,29.91,10.0,SSE,4.6,-,N/A,,Clear,160,2013-04-12 03:35:00
8:55 PM,59.0,26.6,29,29.91,10.0,SSE,3.5,-,N/A,,Clear,160,2013-04-12 03:55:00
9:15 PM,59.0,26.6,29,29.92,10.0,Calm,Calm,-,N/A,,Clear,0,2013-04-12 04:15:00
9:35 PM,59.0,26.6,29,29.92,10.0,Calm,Calm,-,N/A,,Clear,0,2013-04-12 04:35:00
9:55 PM,59.0,26.6,29,29.92,10.0,Calm,Calm,-,N/A,,Clear,0,2013-04-12 04:55:00
10:15 PM,57.2,26.6,31,29.92,10.0,NE,4.6,-,N/A,,Clear,40,2013-04-12 05:15:00
10:35 PM,55.4,26.6,33,29.92,10.0,NE,4.6,-,N/A,,Clear,50,2013-04-12 05:35:00
10:55 PM,55.4,26.6,33,29.92,10.0,NE,8.1,-,N/A,,Clear,50,2013-04-12 05:55:00
11:15 PM,53.6,26.6,35,29.92,10.0,NE,6.9,-,N/A,,Clear,40,2013-04-12 06:15:00
11:35 PM,53.6,26.6,35,29.91,10.0,NE,8.1,-,N/A,,Clear,40,2013-04-12 06:35:00
11:55 PM,53.6,26.6,35,29.92,10.0,NNE,10.4,-,N/A,,Clear,30,2013-04-12 06:55:00